Weather History for KAAT - January, 2013

Change the Weather History Date:

Wednesday, January 9, 2013

  Actual Average Record
Temperature  
Mean Temperature 31 °F 29 °F  
Max Temperature 41 °F 41 °F 56 °F (2012)
Min Temperature 21 °F 18 °F -21 °F (1977)
Degree Days  
Heating Degree Days 34 36  
Month to date heating degree days 390 324  
Since 1 July heating degree days 2941 3234  
Cooling Degree Days 0 0  
Month to date cooling degree days 0 0  
Year to date cooling degree days 0 0  
Moisture  
Dew Point 26 °F    
Average Humidity 83    
Maximum Humidity 100    
Minimum Humidity 65    
Precipitation  
Precipitation 0.20 in 0.06 in 0.42 in (2008)
Month to date precipitation 0.21 0.63  
Year to date precipitation 0.21 0.63  
Sea Level Pressure  
Sea Level Pressure 29.89 in    
Wind  
Wind Speed 5 mph (WNW)    
Max Wind Speed 24 mph    
Max Gust Speed 30 mph    
Visibility 5 miles    
Events Fog , Rain , Snow    
T = Trace of Precipitation, MM = Missing Value Source: NWS Daily Summary

Daily Weather History Graph

Daily Weather History Graph

Search for Another Location

Airport or City:

Trip Planner

Search our weather history database for the weather conditions in past years. The results will help you decide how hot, cold, wet, or windy it might be!

Date:

Astronomy

Jan. 09, 2013 Rise Set
Actual Time 7:28 AM PST 4:51 PM PST
Civil Twilight 6:57 AM PST 5:22 PM PST
Nautical Twilight 6:22 AM PST 5:56 PM PST
Astronomical Twilight 5:49 AM PST 6:29 PM PST
Moon 5:12 AM PST (1/9) 2:58 PM PST (1/9)
Length of Visible Light 10h 24m
Length of Day
9h 23m
Waning Crescent, 6% of the Moon is Illuminated
Jan 9
Waning Crescent
Jan 11
New
Jan 18
First Quarter
Jan 26
Full
Feb 3
Last Quarter

Hourly Weather History & Observations

Time (PST) Temp. Windchill Dew Point Humidity Pressure Visibility Wind Dir Wind Speed Gust Speed Precip Events Conditions
12:55 AM 21.0 °F 16.2 °F 19.0 °F 92% 30.20 in 6.0 mi Variable 3.5 mph - N/A   Clear
1:55 AM 28.0 °F 20.8 °F 25.0 °F 88% 30.13 in 4.0 mi ESE 6.9 mph - N/A   Clear
2:55 AM 28.9 °F - 26.1 °F 89% 30.12 in 10.0 mi Calm Calm - N/A   Clear
3:55 AM 28.9 °F - 25.0 °F 85% 30.08 in 10.0 mi Calm Calm - N/A   Clear
4:55 AM 30.9 °F 25.2 °F 27.0 °F 85% 30.04 in 10.0 mi SSE 5.8 mph - N/A   Clear
5:55 AM 34.0 °F 27.2 °F 28.0 °F 79% 30.02 in 10.0 mi SSE 8.1 mph - N/A   Clear
6:55 AM 35.1 °F - 28.0 °F 76% 30.02 in 10.0 mi Calm Calm - N/A   Partly Cloudy
7:55 AM 35.1 °F 32.2 °F 28.0 °F 76% 30.03 in 10.0 mi NNE 3.5 mph - N/A   Clear
9:55 AM 37.0 °F - 28.0 °F 70% 30.02 in 9.0 mi Calm Calm - N/A   Clear
10:55 AM 39.0 °F - 30.0 °F 70% 29.98 in 10.0 mi Calm Calm - N/A   Clear
11:55 AM 41.0 °F 37.1 °F 30.9 °F 67% 29.93 in 10.0 mi WSW 5.8 mph - N/A   Overcast
12:55 PM 37.9 °F 30.9 °F 33.1 °F 83% 29.91 in 10.0 mi West 10.4 mph - N/A   Overcast
1:55 PM 35.1 °F 28.6 °F 33.1 °F 92% 29.88 in 10.0 mi West 8.1 mph - 0.00 in Rain Light Rain
2:55 PM 35.1 °F - 34.0 °F 96% 29.86 in 10.0 mi Calm Calm - 0.02 in Rain Light Rain
3:18 PM 35.6 °F - 33.8 °F 93% 29.80 in 10.0 mi Calm Calm - 0.00 in Rain Light Rain
3:55 PM 35.1 °F 32.2 °F 33.1 °F 92% 29.82 in 10.0 mi East 3.5 mph - 0.00 in   Partly Cloudy
4:52 PM 32.0 °F 20.1 °F 28.4 °F 87% 29.78 in 10.0 mi NNW 19.6 mph - N/A   Overcast
4:55 PM 32.0 °F 20.8 °F 28.0 °F 85% 29.82 in 10.0 mi NNW 17.3 mph - N/A   Overcast
5:24 PM 30.2 °F 17.1 °F 26.6 °F 86% 29.78 in 1.8 mi NW 21.9 mph 28.8 mph 0.00 in Snow Light Snow
5:38 PM 30.2 °F 18.1 °F 28.4 °F 93% 29.78 in 0.8 mi NNW 18.4 mph 27.6 mph 0.01 in Snow Light Snow
5:48 PM 30.2 °F 20.8 °F 26.6 °F 86% 29.78 in 1.5 mi NNW 11.5 mph - 0.01 in Snow Light Snow
6:42 PM 28.4 °F 19.1 °F 24.8 °F 86% 29.80 in 1.8 mi NW 10.4 mph - 0.02 in Snow Light Snow
6:55 PM 28.0 °F 20.0 °F 25.0 °F 88% 29.85 in 1.8 mi WNW 8.1 mph - 0.02 in Snow Light Snow
7:06 PM 26.6 °F 18.2 °F 24.8 °F 93% 29.81 in 1.0 mi West 8.1 mph - 0.01 in Snow Light Snow
7:16 PM 26.6 °F 17.5 °F 24.8 °F 93% 29.82 in 0.8 mi West 9.2 mph - 0.01 in Snow Light Snow
7:51 PM 26.6 °F 16.2 °F 24.8 °F 93% 29.81 in 0.5 mi West 11.5 mph - 0.04 in Fog , Snow Snow
7:55 PM 26.1 °F 15.6 °F 24.1 °F 92% 29.86 in 0.5 mi WNW 11.5 mph - 0.05 in Fog , Snow Snow
8:05 PM 26.6 °F 17.5 °F 24.8 °F 93% 29.82 in 1.0 mi West 9.2 mph - 0.00 in Snow Light Snow
8:19 PM 26.6 °F 16.8 °F 23.0 °F 86% 29.81 in 1.2 mi WNW 10.4 mph - 0.01 in Snow Light Snow
8:32 PM 24.8 °F 15.3 °F 24.8 °F 100% 29.82 in 0.8 mi West 9.2 mph - 0.01 in Snow Light Snow
8:39 PM 24.8 °F 16.9 °F 24.8 °F 100% 29.81 in 1.0 mi West 6.9 mph - 0.02 in Snow Light Snow
8:55 PM 25.0 °F - 24.1 °F 96% 29.87 in 1.0 mi Calm Calm - 0.03 in Snow Light Snow
9:04 PM 24.8 °F - 24.8 °F 100% 29.81 in 0.8 mi Calm Calm - 0.00 in Snow Light Snow
9:24 PM 26.6 °F - 24.8 °F 93% 29.81 in 1.0 mi Calm Calm - 0.02 in Snow Light Snow
9:55 PM 25.0 °F 16.3 °F 24.1 °F 96% 29.86 in 1.0 mi West 8.1 mph 39.1 mph 0.05 in Snow Light Snow
10:37 PM 24.8 °F 14.0 °F 21.2 °F 86% 29.82 in 2.0 mi NNW 11.5 mph - 0.02 in Snow Light Snow
11:08 PM 24.8 °F 14.0 °F 21.2 °F 86% 29.83 in 3.0 mi NW 11.5 mph - 0.00 in Snow Light Snow
11:16 PM 24.8 °F 16.9 °F 21.2 °F 86% 29.83 in 3.0 mi NW 6.9 mph - 0.00 in Snow Light Snow
11:55 PM 25.0 °F 19.3 °F 19.9 °F 81% 29.86 in 7.0 mi NNW 4.6 mph - 0.00 in Snow Light Snow